FW7308 Weather Reports


Display with metric or nautical units.
time (UTC)temp
F
wind
direction
speed
MPH
gust
MPH
rain 1hr
in
rain 24hr
in
rain mn
in
humidity
%
barometer
mb
20260903045742 61 40 4.0 5.0 0.00 0.00 0.00 90 1020.0
20260903045241 61 172 6.0 8.0 0.00 0.00 0.00 89 1020.0
20260903044740 62 95 5.0 6.0 0.00 0.00 0.00 89 1020.0
20260903044240 62 114 8.0 9.0 0.00 0.00 0.00 89 1019.8
20260903043739 62 57 4.0 5.0 0.00 0.00 0.00 89 1020.0
20260903043240 62 64 3.0 5.0 0.00 0.00 0.00 89 1020.0
20260903042739 62 52 2.0 3.0 0.00 0.00 0.00 90 1020.0
20260903042238 62 138 7.0 10.0 0.00 0.00 0.00 89 1020.0
20260903041738 62 171 6.0 7.0 0.00 0.00 0.00 90 1020.0
20260903041341 62 158 5.0 8.0 0.00 0.00 0.00 90 1020.3
20260903040738 62 192 3.0 5.0 0.00 0.00 0.00 90 1020.3
20260903040239 62 86 4.0 5.0 0.00 0.00 0.00 91 1020.3
20260903035737 62 21 3.0 3.0 0.00 0.00 0.00 92 1020.7
20260903035238 62 149 3.0 5.0 0.00 0.00 0.00 92 1020.7
20260903034738 62 249 4.0 5.0 0.00 0.00 0.00 92 1020.3
20260903034236 62 249 3.0 5.0 0.00 0.00 0.00 93 1020.3
20260903033735 62 115 4.0 5.0 0.00 0.00 0.00 93 1020.3
20260903033236 62 119 3.0 5.0 0.00 0.00 0.00 93 1020.3
20260903032736 62 54 3.0 5.0 0.00 0.00 0.00 93 1020.7
20260903032237 62 354 2.0 3.0 0.00 0.00 0.00 94 1020.3
20260903031737 62 353 2.0 2.0 0.00 0.00 0.00 94 1020.7
20260903031336 62 178 4.0 7.0 0.00 0.00 0.00 94 1021.0
20260903030735 62 338 3.0 5.0 0.00 0.00 0.00 94 1020.8
20260903030234 62 96 4.0 5.0 0.00 0.00 0.00 95 1021.0
20260903025734 62 176 3.0 5.0 0.00 0.00 0.00 95 1021.0
20260903025234 62 44 4.0 6.0 0.00 0.00 0.00 96 1021.0
20260903024733 62 343 2.0 3.0 0.00 0.00 0.00 96 1020.8
20260903024232 62 323 2.0 3.0 0.00 0.00 0.00 96 1021.0
20260903023733 62 357 1.0 2.0 0.00 0.00 0.00 97 1021.0
20260903023232 62 20 3.0 3.0 0.00 0.00 0.00 98 1021.0
20260903022732 62 8 3.0 5.0 0.00 0.00 0.00 98 1021.0
20260903022231 62 338 2.0 2.0 0.00 0.00 0.00 98 1021.4
20260903021730 62 12 3.0 3.0 0.00 0.00 0.00 98 1021.0
20260903021231 62 184 2.0 5.0 0.00 0.00 0.00 98 1021.0
20260903020730 62 96 3.0 5.0 0.00 0.00 0.00 98 1021.4
20260903020231 62 19 3.0 5.0 0.00 0.00 0.00 97 1021.4
20260903015830 62 335 0.0 1.0 0.00 0.00 0.00 97 1021.4
20260903015230 62 350 1.0 2.0 0.00 0.00 0.00 97 1021.5
20260903014729 62 43 3.0 5.0 0.00 0.00 0.00 97 1021.4
20260903014228 62 358 1.0 2.0 0.00 0.00 0.00 96 1021.7
20260903013729 62 319 2.0 2.0 0.00 0.00 0.00 96 1021.7
20260903013228 62 9 2.0 3.0 0.00 0.00 0.00 96 1021.7
20260903012727 62 91 5.0 6.0 0.00 0.00 0.00 95 1021.7
20260903012227 62 31 2.0 3.0 0.00 0.00 0.00 95 1021.7
20260903011726 62 39 3.0 3.0 0.00 0.00 0.00 95 1022.1
20260903011227 62 114 8.0 9.0 0.00 0.00 0.00 95 1021.7
20260903010726 62 0.0 0.0 0.00 0.00 0.00 95 1022.1
20260903010225 62 270 4.0 5.0 0.00 0.00 0.00 94 1022.1
20260903005725 62 134 3.0 5.0 0.00 0.00 0.00 94 1021.7
20260903005224 62 170 6.0 7.0 0.00 0.00 0.00 94 1021.4
20260903004725 63 196 3.0 5.0 0.00 0.00 0.00 94 1021.4
20260903004227 63 217 4.0 6.0 0.00 0.00 0.00 93 1021.4
20260903003827 63 187 4.0 8.0 0.00 0.00 0.00 93 1021.4
20260903003223 63 220 3.0 5.0 0.00 0.00 0.00 93 1021.4
20260903002824 63 28 3.0 5.0 0.00 0.00 0.00 93 1021.4
20260903002223 63 82 4.0 7.0 0.00 0.00 0.00 93 1021.0
20260903001724 63 169 3.0 3.0 0.00 0.00 0.00 93 1021.0
20260903001221 63 17 2.0 3.0 0.00 0.00 0.00 93 1020.8
20260903000723 63 163 4.0 6.0 0.00 0.00 0.00 93 1021.0
20260902235721 63 126 7.0 10.0 0.00 0.00 0.00 93 1021.0
20260902235221 64 153 7.0 8.0 0.00 0.00 0.00 94 1021.0
20260902234721 64 153 7.0 8.0 0.00 0.00 0.00 94 1021.4
20260902233821 64 102 5.0 7.0 0.00 0.00 0.00 99 1021.4
20260902233222 64 102 5.0 7.0 0.00 0.00 0.00 99 1021.4
20260902232720 64 3 3.0 5.0 0.00 0.00 0.00 99 1021.4
20260902232321 64 316 2.0 2.0 0.00 0.00 0.00 99 1021.7
20260902231718 64 359 2.0 2.0 0.00 0.00 0.00 99 1021.7
20260902231319 64 9 2.0 2.0 0.00 0.00 0.00 99 1022.1
20260902230717 64 322 1.0 2.0 0.00 0.00 0.00 99 1022.2
20260902230218 64 337 1.0 1.0 0.00 0.00 0.00 99 1022.4
20260902225820 64 25 2.0 3.0 0.00 0.00 0.00 99 1022.4
20260902225216 64 0.0 0.0 0.00 0.00 0.00 99 1022.8
20260902224717 64 340 1.0 2.0 0.00 0.00 0.00 99 1022.8
20260902224320 64 336 1.0 2.0 0.00 0.00 0.00 99 1022.8
20260902223746 64 342 1.0 1.0 0.00 0.00 0.00 99 1022.8
20260902223246 64 346 1.0 2.0 0.00 0.00 0.00 99 1022.8
20260902222744 65 342 1.0 1.0 0.00 0.00 0.00 99 1023.1
20260902222245 65 347 1.0 1.0 0.00 0.00 0.00 98 1022.8
20260902221244 65 0.0 0.0 0.00 0.00 0.00 97 1023.1
20260902220743 65 332 0.0 1.0 0.00 0.00 0.00 97 1023.1
20260902220244 65 332 1.0 1.0 0.00 0.00 0.00 96 1023.1
20260902215243 65 320 1.0 2.0 0.00 0.00 0.00 96 1023.1
20260902214742 65 319 0.0 1.0 0.00 0.00 0.00 97 1023.1
20260902214241 65 0.0 0.0 0.00 0.00 0.00 97 1022.8
20260902213743 65 338 0.0 1.0 0.00 0.00 0.00 97 1023.1
20260902213241 65 323 1.0 1.0 0.00 0.00 0.00 97 1022.8
20260902212741 65 323 1.0 2.0 0.00 0.00 0.00 97 1022.8
20260902212242 65 334 0.0 1.0 0.00 0.00 0.00 97 1022.8
20260902211741 65 336 0.0 1.0 0.00 0.00 0.00 97 1022.8
20260902211242 65 342 1.0 1.0 0.00 0.00 0.00 96 1022.8
20260902210743 65 335 0.0 1.0 0.00 0.00 0.00 96 1022.8
20260902210241 65 0.0 0.0 0.00 0.00 0.00 97 1023.1
20260902205740 65 335 1.0 1.0 0.00 0.00 0.00 96 1023.1
20260902205239 65 325 1.0 2.0 0.00 0.00 0.00 96 1023.1
20260902204738 65 294 0.0 1.0 0.00 0.00 0.00 95 1022.9
20260902204239 65 329 0.0 1.0 0.00 0.00 0.00 97 1022.9
20260902203739 65 350 1.0 2.0 0.00 0.00 0.00 97 1022.8
20260902203238 65 332 0.0 1.0 0.00 0.00 0.00 96 1022.8
20260902202839 66 358 2.0 2.0 0.00 0.00 0.00 95 1022.8
20260902202238 66 320 1.0 2.0 0.00 0.00 0.00 95 1022.8
20260902201738 66 0.0 0.0 0.00 0.00 0.00 96 1022.8
20260902201237 66 348 2.0 2.0 0.00 0.00 0.00 95 1023.1
20260902200736 66 334 1.0 2.0 0.00 0.00 0.00 95 1023.1
20260902200237 66 355 2.0 3.0 0.00 0.00 0.00 94 1023.1
20260902195736 66 170 4.0 6.0 0.00 0.00 0.00 94 1023.1
20260902195235 66 156 4.0 5.0 0.00 0.00 0.00 94 1023.1
20260902194235 66 25 3.0 3.0 0.00 0.00 0.00 93 1023.5
20260902193735 66 138 5.0 6.0 0.00 0.00 0.00 92 1023.5
20260902193336 66 133 5.0 8.0 0.00 0.00 0.00 92 1023.5
20260902192733 67 145 7.0 10.0 0.00 0.00 0.00 91 1023.1
20260902192232 67 204 4.0 7.0 0.00 0.00 0.00 91 1023.1
20260902191733 66 156 5.0 8.0 0.00 0.00 0.00 93 1023.5
20260902191233 65 139 6.0 9.0 0.00 0.00 0.00 94 1023.8
20260902190731 66 151 5.0 8.0 0.00 0.00 0.00 93 1023.6
20260902190231 65 20 2.0 3.0 0.00 0.00 0.00 94 1023.8
20260902185732 65 161 3.0 5.0 0.00 0.00 0.00 93 1023.5
20260902185231 66 146 4.0 6.0 0.00 0.00 0.00 93 1023.8
20260902184730 66 42 3.0 3.0 0.00 0.00 0.00 93 1023.5
20260902184229 65 324 2.0 3.0 0.00 0.00 0.00 94 1023.8
20260902183731 65 255 3.0 3.0 0.00 0.00 0.00 95 1023.8
20260902183230 65 299 3.0 3.0 0.00 0.00 0.00 95 1023.8
20260902182729 64 352 2.0 3.0 0.00 0.00 0.00 94 1024.0
20260902182230 65 85 3.0 3.0 0.00 0.00 0.00 94 1024.0
20260902181729 65 172 5.0 7.0 0.00 0.00 0.00 93 1023.8
20260902181229 65 26 2.0 2.0 0.00 0.00 0.00 94 1023.8
20260902180728 65 182 4.0 6.0 0.00 0.00 0.00 93 1024.0
20260902180230 65 139 3.0 5.0 0.00 0.00 0.00 95 1023.8
20260902175728 65 352 1.0 3.0 0.00 0.00 0.00 94 1024.2
20260902175328 65 8 3.0 3.0 0.00 0.00 0.00 94 1023.8
20260902174229 65 151 4.0 6.0 0.00 0.00 0.00 94 1023.8
20260902173727 65 74 2.0 3.0 0.00 0.00 0.00 94 1023.8
20260902173226 65 258 3.0 3.0 0.00 0.00 0.00 95 1023.8
20260902172725 64 258 3.0 5.0 0.00 0.00 0.00 96 1023.8
20260902172225 64 164 7.0 8.0 0.00 0.00 0.00 95 1023.8
20260902171726 64 39 3.0 5.0 0.00 0.00 0.00 96 1024.2
20260902171225 64 270 3.0 3.0 0.00 0.00 0.00 96 1024.2
20260902170724 64 0 2.0 3.0 0.00 0.00 0.00 96 1024.2
20260902170224 64 89 4.0 5.0 0.00 0.00 0.00 96 1024.2
20260902164823 64 290 2.0 2.0 0.00 0.00 0.00 95 1024.2
20260902164242 64 6 2.0 2.0 0.00 0.00 0.00 95 1024.2
20260902162723 63 275 3.0 3.0 0.00 0.00 0.00 96 1024.2
20260902162221 63 342 3.0 3.0 0.00 0.00 0.00 96 1024.5
20260902161820 63 163 3.0 7.0 0.00 0.00 0.00 96 1024.3
20260902161223 63 267 2.0 3.0 0.00 0.00 0.00 96 1024.2
20260902160720 64 302 2.0 2.0 0.00 0.00 0.00 95 1024.5
20260902155719 64 196 5.0 6.0 0.00 0.00 0.00 95 1024.5
20260902155220 64 169 6.0 8.0 0.00 0.00 0.00 94 1024.5
20260902154720 64 109 4.0 5.0 0.00 0.00 0.00 95 1024.5
20260902154218 63 92 5.0 7.0 0.00 0.00 0.00 97 1024.5
20260902153722 63 153 6.0 7.0 0.00 0.00 0.00 96 1024.5
20260902153219 63 344 2.0 3.0 0.00 0.00 0.00 97 1024.9
20260902152759 63 330 0.0 1.0 0.00 0.00 0.00 97 1024.9
20260902142244 63 125 4.0 6.0 0.00 0.00 0.00 96 1025.0
20260902141744 63 200 6.0 7.0 0.00 0.00 0.00 96 1024.9
20260902141242 63 207 4.0 8.0 0.00 0.00 0.00 96 1024.9
20260902140713 63 187 5.0 6.0 0.00 0.00 0.00 94 1024.9
20260902140242 62 157 4.0 5.0 0.00 0.00 0.00 96 1024.5
20260902135240 62 338 2.0 3.0 0.00 0.00 0.00 98 1024.5
20260902134745 62 184 4.0 6.0 0.00 0.00 0.00 98 1024.5
20260902134342 62 324 1.0 2.0 0.00 0.00 0.00 99 1024.5
20260902133740 61 183 3.0 5.0 0.00 0.00 0.00 99 1024.5
20260902133239 61 284 3.0 3.0 0.00 0.00 0.00 99 1024.5
20260902132739 61 342 1.0 2.0 0.00 0.00 0.00 99 1024.5
20260902132240 61 305 1.0 1.0 0.00 0.00 0.00 99 1024.5
20260902131739 60 348 2.0 2.0 0.00 0.00 0.00 99 1024.2
20260902131239 60 12 3.0 3.0 0.00 0.00 0.00 99 1024.2
20260902130739 60 102 4.0 5.0 0.00 0.00 0.00 99 1024.2
20260902130238 60 350 3.0 3.0 0.00 0.00 0.00 99 1024.2
20260902125737 60 23 2.0 3.0 0.00 0.00 0.00 99 1024.2
20260902125236 60 299 3.0 3.0 0.00 0.00 0.00 99 1024.2
20260902124738 59 355 2.0 2.0 0.00 0.00 0.00 99 1024.2
20260902124237 60 343 1.0 2.0 0.00 0.00 0.00 99 1024.3
20260902123736 60 1 2.0 3.0 0.00 0.00 0.00 99 1024.2
20260902123235 59 307 1.0 2.0 0.00 0.00 0.00 99 1024.2
20260902122738 60 339 1.0 2.0 0.00 0.00 0.00 99 1024.2
20260902122236 60 352 1.0 1.0 0.00 0.00 0.00 99 1024.5
20260902121234 59 335 1.0 1.0 0.00 0.00 0.00 99 1024.2
20260902120735 59 0.0 0.0 0.00 0.00 0.00 99 1024.3
20260902120234 59 337 0.0 1.0 0.00 0.00 0.00 99 1024.2
20260902115834 59 358 1.0 2.0 0.00 0.00 0.00 99 1024.5
20260902115236 59 338 0.0 1.0 0.00 0.00 0.00 99 1024.3
20260902114733 59 0.0 0.0 0.00 0.00 0.00 99 1024.2
20260902114233 59 338 1.0 1.0 0.00 0.00 0.00 99 1024.5
20260902113833 59 348 1.0 2.0 0.00 0.00 0.00 99 1024.2
20260902112731 59 0.0 0.0 0.00 0.00 0.00 99 1024.5
20260902112233 59 0.0 0.0 0.00 0.00 0.00 99 1024.5
20260902111731 59 0.0 0.0 0.00 0.00 0.00 99 1024.5
20260902102226 58 0.0 0.0 0.00 0.00 0.00 99 1024.2
20260902101226 58 0.0 0.0 0.00 0.00 0.00 99 1023.8
20260902100727 58 0.0 0.0 0.00 0.00 0.00 99 1024.2
20260902100329 58 0.0 0.0 0.00 0.00 0.00 99 1024.2
20260902095826 58 0.0 0.0 0.00 0.00 0.00 99 1023.8
20260902095325 58 0.0 0.0 0.00 0.00 0.00 99 1023.8
20260902094724 58 0.0 0.0 0.00 0.00 0.00 99 1023.8
20260902094227 58 0.0 0.0 0.00 0.00 0.00 99 1023.8
20260902093727 58 0.0 0.0 0.00 0.00 0.00 99 1024.0
20260902092224 58 0.0 0.0 0.00 0.00 0.00 99 1023.8
20260902091725 58 0.0 0.0 0.00 0.00 0.00 99 1023.8
20260902091223 58 0.0 0.0 0.00 0.00 0.00 99 1023.8
20260902090722 58 0.0 0.0 0.00 0.00 0.00 99 1023.8
20260902080217 58 332 0.0 1.0 0.00 0.00 0.00 99 1023.5
20260902075717 58 342 1.0 2.0 0.00 0.00 0.00 99 1023.5
20260902075218 59 335 0.0 1.0 0.00 0.00 0.00 99 1023.5
20260902074717 59 324 0.0 1.0 0.00 0.00 0.00 99 1023.1
20260902074216 59 339 1.0 1.0 0.00 0.00 0.00 99 1023.5
20260902073745 59 0.0 0.0 0.00 0.00 0.00 99 1023.5
20260902073246 59 337 0.0 1.0 0.00 0.00 0.00 99 1023.5
20260902072745 59 336 0.0 1.0 0.00 0.00 0.00 99 1023.5
20260902072244 58 338 0.0 1.0 0.00 0.00 0.00 99 1023.5
20260902071744 58 0.0 0.0 0.00 0.00 0.00 99 1023.1
20260902071245 58 0.0 0.0 0.00 0.00 0.00 99 1023.5
20260902070744 58 0.0 0.0 0.00 0.00 0.00 99 1023.5
20260902070345 58 0.0 0.0 0.00 0.00 0.00 99 1023.5
20260902065743 59 336 0.0 1.0 0.00 0.00 0.00 99 1023.5
20260902065245 59 341 0.0 1.0 0.00 0.00 0.00 99 1023.8
20260902064844 59 0.0 0.0 0.00 0.00 0.00 99 1023.8
20260902064242 59 322 0.0 1.0 0.00 0.00 0.00 99 1023.8
20260902063741 59 0.0 0.0 0.00 0.00 0.00 99 1023.8
20260902062742 59 0.0 0.0 0.00 0.00 0.00 99 1023.8
20260902061740 59 0.0 0.0 0.00 0.00 0.00 99 1023.5
20260902061241 59 0.0 0.0 0.00 0.00 0.00 99 1023.5
20260902060240 59 0.0 0.0 0.00 0.00 0.00 99 1023.5
20260902055739 59 0.0 0.0 0.00 0.00 0.00 99 1023.1